This is the latest recevied weather packets stored in our database for station/object KM5R. If no packets are shown the sender has not sent any weather packets the latest 10 day(s).
| Time | Temp. | Humidity | Pressure | Rain* | Wind** | Luminosity | Snow |
|---|---|---|---|---|---|---|---|
| 1777588636 | 15.56° C | 91% | 1014.6 hPa | 0 mm | - | 38 W/m² | - |
| 1777588332 | 15.56° C | 91% | 1014.4 hPa | 0 mm | - | 26 W/m² | - |
| 1777588028 | 16.11° C | 91% | 1014.8 hPa | 0 mm | - | 25 W/m² | - |
| 1777587723 | 15.56° C | 91% | 1014.5 hPa | 0 mm | - | 28 W/m² | - |
| 1777587418 | 15.56° C | 91% | 1014.1 hPa | 0 mm | - | 39 W/m² | - |
| 1777587114 | 15.56° C | 91% | 1014.1 hPa | 0 mm | - | 41 W/m² | - |
| 1777586811 | 15.56° C | 91% | 1013.8 hPa | 0 mm | - | 47 W/m² | - |
| 1777586506 | 16.11° C | 91% | 1013.4 hPa | 0 mm | - | 30 W/m² | - |
| 1777586202 | 16.11° C | 91% | 1012.9 hPa | 0 mm | - | 89 W/m² | - |
| 1777585900 | 15.56° C | 91% | 1013.2 hPa | 0 mm | - | 43 W/m² | - |
| 1777585600 | 15.56° C | 91% | 1013.7 hPa | 0 mm | - | 45 W/m² | - |
| 1777585295 | 15.56° C | 91% | 1013.3 hPa | 0 mm | - | 60 W/m² | - |
| 1777584990 | 15.56° C | 91% | 1013.6 hPa | 0 mm | - | 79 W/m² | - |
| 1777584687 | 15.56° C | 91% | 1013.9 hPa | 1.27 mm | - | 60 W/m² | - |
| 1777584384 | 15.56° C | 91% | 1013.7 hPa | 3.05 mm | - | 64 W/m² | - |
| 1777584081 | 15.56° C | 91% | 1013.6 hPa | 1.78 mm | - | 102 W/m² | - |
| 1777583781 | 15.56° C | 91% | 1013.8 hPa | 0 mm | - | 82 W/m² | - |
| 1777583476 | 15.56° C | 91% | 1013.6 hPa | 0 mm | - | 85 W/m² | - |
| 1777583175 | 15° C | 91% | 1013.9 hPa | 0 mm | - | 120 W/m² | - |
| 1777582871 | 15° C | 91% | 1014.4 hPa | 0 mm | - | 73 W/m² | - |
| 1777582569 | 15° C | 91% | 1014.7 hPa | 0 mm | - | 52 W/m² | - |
| 1777582263 | 15° C | 91% | 1014.2 hPa | 0 mm | - | 48 W/m² | - |
| 1777581961 | 15.56° C | 91% | 1013.8 hPa | 0 mm | - | 39 W/m² | - |
| 1777581656 | 15.56° C | 91% | 1014.1 hPa | 0 mm | - | 54 W/m² | - |
| 1777581350 | 15.56° C | 91% | 1014.4 hPa | 0 mm | - | 55 W/m² | - |
* Rain latest hour (hover to see other rain measurements)
** Current wind speed in m/s (hover to see current wind gust speed)